Regional Weather Roundup
Issued by NWS State College, PA

Home | Current Version | Previous Version | Text Only | Print | Product List | Glossary Off
Versions: 1 2 3 4 5 6 7 8 9 10 11 12 13 14 15 16 17 18 19 20 21 22 23 24 25 26 27 28 29 30 31 32 33 34 35 36 37 38 39 40 41 42 43 44 45 46 47 48 49 50

000
ASUS41 KCTP 242103
RWRCTP

REGIONAL WEATHER ROUNDUP
NATIONAL WEATHER SERVICE STATE COLLEGE PA
500 PM EDT SUN MAY 24 2015

Note: "fair" indicates few or no clouds below 12,000 feet with no
significant weather and/or obstructions to visibility.

* = STATION THAT DOES NOT REPORT PRECIPITATION /E.G. RAIN...SNOW...ETC/
    THUNDER OR FOG.

PAZ002>004-007>009-013>016-020>023-029>032-242200-
WESTERN PENNSYLVANIA

CITY           SKY/WX    TMP DP  RH WIND       PRES   REMARKS
ERIE           PTSUNNY   75  43  31 VRB3      30.22F
MEADVILLE      CLOUDY    75  45  34 SW6       30.24F
FRANKLIN*      CLOUDY    75  46  35 SW6       30.27S
NEW CASTLE     FAIR      79  45  29 CALM      30.24F
BEAVER COUNTY  NOT AVBL
BUTLER*        PTSUNNY   79  43  27 S6        30.26F
PITTSBURGH INT PTSUNNY   79  37  22 S6        30.24F
PITTSBURGH     PTSUNNY   78  32  18 S7        30.24F
INDIANA*       SUNNY     79  43  27 W9        30.29S
LATROBE        MOSUNNY   79  41  25 CALM      30.26F
WASHINGTON CO* PTSUNNY   81  46  30 SW8       30.26S
$$

PAZ004>006-010>012-017>019-024>028-033>037-041-042-045-046-049>053-242200-
CENTRAL PENNSYLVANIA

CITY           SKY/WX    TMP DP  RH WIND       PRES   REMARKS
BRADFORD       PTSUNNY   74  42  31 SW7       30.26F
DUBOIS         MOSUNNY   77  42  28 SW7       30.27F
CLEARFIELD     MOSUNNY   76  43  30 SW7       30.26F
JOHNSTOWN      SUNNY     76  40  27 CALM      30.28F
ALTOONA        SUNNY     79  40  24 SW13      30.27F
STATE COLLEGE  MOSUNNY   79  43  27 S8        30.24F
WILLIAMSPORT   MOSUNNY   83  40  21 W6        30.20F
SELINSGROVE    SUNNY     82  43  25 S6        30.23F
FT INDIANTOWN  SUNNY     78  42  27 SW13      30.24F HAZE
CAPITAL CITY   SUNNY     79  42  26 S3        30.25F
HARRISBURG     MOSUNNY   80  46  30 SE6       30.24F
YORK           SUNNY     78  47  33 S5        30.26F
$$

PAZ038>040-043-044-047-048-054-055-060>062-067>071-242200-
EASTERN PENNSYLVANIA

CITY           SKY/WX    TMP DP  RH WIND       PRES   REMARKS
SCRANTON       PTSUNNY   79  36  21 SW12      30.23F
MOUNT POCONO   PTSUNNY   73  32  22 W10       30.27F
ALLENTOWN      MOSUNNY   81  38  21 SW12G18   30.24F
QUAKERTOWN*    CLEAR     79  41  25 W5        30.27S
READING        SUNNY     81  38  21 VRB5      30.24F
LANCASTER      SUNNY     79  38  22 W10       30.26F
COATESVILLE    CLEAR     77  46  33 W5        30.28S
POTTSTOWN      SUNNY     79  39  23 W6        30.27F
BLUE BELL      SUNNY     81  46  30 W9        30.25F
DOYLESTOWN     MOSUNNY   78  35  21 SW9       30.25F
WILLOW GROVE   NOT AVBL
NORTH PHILA    SUNNY     81  44  27 SW5       30.27F
PHILADELPHIA   MOSUNNY   81  43  26 SW12      30.26F
$$


USA.gov is the U.S. government's official web portal to all federal, state and local government web resources and services.